Regional Weather Roundup
Issued by NWS Grand Forks, ND

Home | Current Version | Previous Version | Text Only | Print | Product List | Glossary Off
Versions: 1 2 3 4 5 6 7 8 9 10 11 12 13 14 15 16 17 18 19 20 21 22 23 24 25 26 27 28 29 30 31 32 33 34 35 36 37 38 39 40 41 42 43 44 45 46 47 48 49 50

894
ASUS43 KFGF 292310
RWRFGF
PRAIRIE TO PINES  WEATHER ROUNDUP
NATIONAL WEATHER SERVICE EASTERN NORTH DAKOTA/GRAND FORKS ND
600 PM CDT FRI JUL 29 2016

 **SATELLITE DATA USED TO AUGMENT SKY COVER AT AUTOMATED STATIONS**
 *****  WEATHER ACROSS EASTERN NORTH DAKOTA  *****

CITY           SKY/WX    TMP DP  RH WIND       PRES   REMARKS
GRAND FORKS    PTSUNNY   79  53  40 CALM      30.00F
GRAND FRKS AFB MOSUNNY   78  54  42 SW6       30.01F
DEVILS LAKE    SUNNY     76  60  57 SE7       30.02F
FARGO          PTSUNNY   80  58  46 W6        30.01F
WAHPETON ARPT  MOCLDY    79  57  47 S5        30.02F
$$

 ***** WEATHER ACROSS CENTRAL AND WESTERN NORTH DAKOTA  *****

CITY           SKY/WX    TMP DP  RH WIND       PRES   REMARKS
BISMARCK       MOSUNNY   80  61  52 S10       29.99F
MINOT          MOSUNNY   83  55  38 SW7       29.98F
JAMESTOWN      MOSUNNY   76  62  62 S8        30.02F
MINOT AFB      MOSUNNY   79  58  48 SW1       29.96F
GARRISON         N/A     78  60  53 CALM      29.99F
WILLISTON      CLOUDY    80  47  31 CALM      29.98F
DICKINSON      MOSUNNY   78  52  40 S6        29.98F
HETTINGER      PTSUNNY   85  50  29 SW9       30.00F
$$

 *****  OTHER AIRPORT OBSERVATIONS IN OUR AREA  *****

CITY           SKY/WX    TMP DP  RH WIND       PRES   REMARKS
WALHALLA       NOT AVBL
GRAFTON AIRPOR FAIR      79  54  41 CALM      30.02F
VALLEY CITY AR LGT RAIN  73  66  78 NW8       30.05S
CANDO          NOT AVBL
CAVALIER APRT  FAIR      77  50  38 CALM      30.01S
GWINNER        FAIR      81  63  54 NW5       30.02F
SHEYENNE NWR     N/A     80  59  48 S2        29.95S
ROLLA            N/A     75  57  53 SW7       30.03F
 ***** THE ABOVE OBSERVATIONS ARE NON NWS ARE NOT QUALITY
       CONTROLLED AND MAY MIS-REPORT RAIN FOR SNOW...
$$

  *****  WEATHER ACROSS NORTHERN MINNESOTA  *****

CITY           SKY/WX    TMP DP  RH WIND       PRES   REMARKS
FLAG ISLAND    SUNNY     75  52  43 SE5       30.01F
WARROAD        MOSUNNY   75  63  64 E7        30.02F
ROSEAU         SUNNY     79  61  53 CALM      30.01F
HALLOCK        SUNNY     79  55  44 W3        30.00S
THF RVR FALLS  MOSUNNY   77  54  44 S5        30.03F
BAUDETTE       PTSUNNY   79  56  45 VRB3      30.01F
WASKISH        SUNNY     79  57  47 W6        30.03S
CROOKSTON      MOSUNNY   75  55  50 W5        30.02F
STEPHEN NDAWN    N/A     79  55  44 SE2         N/A
GREENBUSH NDAW   N/A     79  52  38 SE5         N/A
$$
  *****  WEATHER ACROSS CENTRAL AND WEST MINNESOTA  *****

CITY           SKY/WX    TMP DP  RH WIND       PRES   REMARKS
FOSSTON        MOSUNNY   79  52  38 CALM      30.03F
BEMIDJI        MOSUNNY   77  59  54 SE6       30.03F
PARK RAPIDS    MOSUNNY   78  57  48 SE12      30.03F
ELBOW LAKE     CLOUDY    72  63  74 N7        30.05S
WADENA         PTSUNNY   72  61  68 S5        30.04F
DETROIT LAKES  CLOUDY    77  59  53 N3        30.05S
MOORHEAD       PTSUNNY   77  61  57 N5        30.02F
FERGUS FALLS   MOSUNNY   70  66  88 S7        30.05F
MORRIS MN      MOSUNNY   79  57  47 SW6       30.03F
STAPLES        MOSUNNY   75  55  50 SE5       30.04F
$$
  *****  WEATHER ELSEWHERE ACROSS MINNESOTA  *****

CITY           SKY/WX    TMP DP  RH WIND       PRES   REMARKS
DULUTH         MOSUNNY   71  52  50 SE9       30.07F
INTRNTL FALLS  CLOUDY    75  59  57 CALM      30.03F
ELY            CLOUDY    75  48  38 CALM      30.06S
CLOQUET        SUNNY     72  48  43 E9        30.07S
WHEATON        NOT AVBL
BRAINERD       SUNNY     77  51  40 CALM      30.05F
HIBBING        MOSUNNY   75  51  43 SE5       30.05F
ALEXANDRIA     CLOUDY    74  56  53 W5        30.07S
SAINT CLOUD    SUNNY     77  55  46 NE6       30.04S
MINNEAPOLIS    MOSUNNY   78  51  38 N9        30.03S
$$

  *****  WEATHER ACROSS SOUTH DAKOTA  *****

CITY           SKY/WX    TMP DP  RH WIND       PRES   REMARKS
SIOUX FALLS    MOSUNNY   75  56  51 NE7       30.03F
BROOKINGS      SUNNY     76  55  48 VRB3      30.05F
WATERTOWN      MOSUNNY   78  55  44 S8        30.04F
HURON          SUNNY     80  52  37 E8        30.00F
SISSETON         N/A     79  59  50 SW5       30.01F
ABERDEEN       NOT AVBL
MITCHELL       SUNNY     81  53  37 SE6       30.02F
PIERRE         MOSUNNY   84  55  36 SE15G22   29.98F
MOBRIDGE       MOSUNNY   83  52  34 S12       29.97F
RAPID CITY     CLOUDY    73  58  59 SW8       30.02F
$$

  *****  SOME WEATHER IN NEARBY STATES *****

CITY           SKY/WX    TMP DP  RH WIND       PRES   REMARKS
GLASGOW MT     SUNNY     81  55  40 E8        29.97F
GREAT FALLS MT SUNNY     88  46  23 NE7       30.00F
CHEYENNE WY    TSTM      63  57  81 E16       30.14R
SCOTTSBLUFF NE TSTM      71  62  73 SE9G20    30.07R VSB 3/4
OMAHA NE       MOSUNNY   81  62  52 NE6       30.00S
DES MOINES IA  LGT RAIN  71  64  78 N8        29.99R
DAVENPORT IA   CLOUDY    76  68  76 N8        29.93S
CHICAGO IL     CLOUDY    73  69  87 NE12      29.93S
EAU CLAIRE WI  PTSUNNY   79  59  50 N6        30.01R
LA CROSSE WI   CLOUDY    76  64  66 E9        29.99R
$$

  *****  SOME NATIONAL WEATHER *****

CITY           SKY/WX    TMP DP  RH WIND       PRES   REMARKS
LA GUARDIA NY  MOSUNNY   83  69  62 S13       29.86R
RALEIGH NC     MOSUNNY   90  68  48 N3        29.93R HX  94
ATLANTA GA     PTSUNNY   90  69  50 W12       29.99R HX  94
NEW ORLEANS LA CLOUDY    80  74  81 SE7       29.99S
OKLAHOMA CITY  MOSUNNY   86  65  49 NE8       29.97F
ALBUQUERQUE NM CLOUDY    88  41  19 S17G25    30.14R
SALT LAKE CITY MOSUNNY  101  37  11 NW15      29.96F HX  95
LOS ANGELES CA MOSUNNY   77  62  59 W13       29.80F
BOISE ID       SUNNY     99  38  12 N16G22    29.87F HX  94
SEATTLE WA     MOSUNNY   88  55  32 N14G20    29.95F
$$

*** WEATHER ACROSS MANITOBA...SASKATCHEWAN AND ONTARIO ***
                ***ONTARIO***

CITY           SKY/WX    TMP DP  RH WIND       PRES   REMARKS
GERALDTON      MOSUNNY   75  52  43 NW5       30.06S
THUNDER BAY    PTSUNNY   75  52  43 S13       30.05F
SIOUX LOOKOUT  PTSUNNY   77  52  41 S5        30.04S
TORONTO        PTSUNNY   79  57  47 SE7       29.96R
BIG TROUT LK   SUNNY     77  55  47 S6        29.96F
PICKLE LAKE    PTSUNNY   79  46  31 SW8       30.01S
DRYDEN         SUNNY     77  48  36 NW5       30.04S
KENORA         PTSUNNY   75  52  43 SW5       30.04F
$$
                *** MANITOBA***

CITY           SKY/WX    TMP DP  RH WIND       PRES   REMARKS
BRANDON        PTSUNNY   79  54  41 W8        29.99F
DAUPHIN        SUNNY     81  57  44 SW8       29.93F
ISLAND LAKE    NOT AVBL
PILOT MOUND      N/A     75  57  53 S5          N/A
THE PAS        MOSUNNY   77  61  57 W8G18     29.87F
THOMPSON       CLOUDY    63  63 100 NE10      29.91F
WINNIPEG       MOSUNNY   77  57  50 S9        30.00F
LYNN LAKE      CLOUDY    66  59  77 MISG      29.88F
CHURCHILL      PTSUNNY   63  48  59 E7        30.03S
GILLAM         PTSUNNY   70  52  52 E6        29.97R
$$
                ***SASKATCHEWAN***

CITY           SKY/WX    TMP DP  RH WIND       PRES   REMARKS
ESTEVAN        CLOUDY    77  55  47 VRB2      29.98F
KINDERSLEY     MOSUNNY   79  59  50 SW6       29.95F
LLOYDMINSTER   MOSUNNY   79  55  44 W6        29.90F
PRINCE ALBERT  MOSUNNY   77  63  61 S5        29.87F
REGINA         MOSUNNY   79  59  50 SW9       29.95F
YORKTON        SUNNY     75  54  46 S8        29.94F
N. BATTLEFORD  TSTM      70  61  73 SE9       29.92
LA RONGE       PTSUNNY   70  61  73 CALM      29.83R THUNDER
SASKATOON      PTSUNNY   77  61  57 S9        29.92F
SWIFT CURRENT  SUNNY     77  59  53 N9        29.97F
$$
NOTE: THESE ARE AUTOMATED STATIONS WITH LIMITED QUALITY CONTROL
      "FAIR" INDICATES FEW OR NO CLOUDS BELOW 12,000 FEET WITH NO
      SIGNIFICANT WEATHER AND/OR OBSTRUCTIONS TO VISIBILITY.
      SKY/WX - SKY CONDITION AND SIGNIFICANT WEATHER.
      TMP - AIR TEMPERATURE.    DP   - DEWPOINT TEMPERATURE.
      RH  - RELATIVE HUMIDITY.  PRES - PRESSURE.
      HX  - HEAT INDEX.         WCI  - WIND CHILL INDEX.
$




USA.gov is the U.S. government's official web portal to all federal, state and local government web resources and services.